MST,Max TemperatureF,Mean TemperatureF,Min TemperatureF,Max Dew PointF,MeanDew PointF,Min DewpointF,Max Humidity, Mean Humidity, Min Humidity, Max Sea Level PressureIn, Mean Sea Level PressureIn, Min Sea Level PressureIn, Max VisibilityMiles, Mean VisibilityMiles, Min VisibilityMiles, Max Wind SpeedMPH, Mean Wind SpeedMPH, Max Gust SpeedMPH,PrecipitationIn, CloudCover, Events, WindDirDegrees
2012-12-1,55,42,28,30,27,25,86,57,31,30.14,30.09,30.03,10,10,10,16,5,23,0.00,5,,82
2012-12-2,57,39,21,30,22,10,100,67,17,30.14,30.05,29.87,10,10,10,20,4,28,0.00,2,,216
2012-12-3,48,37,24,37,28,16,93,66,27,30.31,30.08,29.91,10,10,10,18,8,22,0.00,5,,239
2012-12-4,44,30,17,25,18,16,100,75,31,30.47,30.38,30.32,10,10,10,6,2,,0.00,2,,121
2012-12-5,53,37,21,34,23,18,93,74,28,30.35,30.22,30.06,10,10,10,18,2,28,0.00,2,,113
2012-12-6,48,39,30,36,30,25,93,79,43,30.06,30.00,29.92,10,10,7,15,3,21,0.00,6,Rain,102
2012-12-7,42,35,28,32,27,21,100,79,49,29.95,29.92,29.88,10,10,3,20,3,25,0.00,6,Snow,145
2012-12-8,41,29,17,28,21,14,100,69,33,29.90,29.82,29.70,10,8,1,24,7,37,0.00,5,Snow,215
2012-12-9,26,12,-2,18,9,-6,100,81,31,30.17,30.01,29.90,10,7,1,10,5,,0.00,4,,92
2012-12-10,24,12,0,18,7,-4,100,82,59,30.18,30.06,29.94,10,9,2,18,3,,0.00,6,Snow,83
2012-12-11,32,20,8,27,13,7,100,85,60,30.06,29.99,29.96,10,10,2,12,3,,0.00,3,,86
2012-12-12,44,26,8,23,14,7,100,79,31,29.98,29.94,29.86,10,10,10,8,4,,0.00,2,,98
2012-12-13,46,32,19,21,19,16,93,73,29,30.03,29.98,29.91,10,10,10,7,2,,0.00,1,,110
2012-12-14,35,26,17,30,19,16,93,84,52,29.92,29.76,29.53,10,10,4,7,2,,0.00,3,Snow,97
2012-12-15,35,30,24,30,28,25,100,92,65,29.78,29.76,29.73,10,9,2,20,5,25,0.00,5,Snow,111
2012-12-16,32,28,23,25,23,19,100,87,60,29.97,29.78,29.73,10,8,0,17,5,26,0.00,5,Snow,217
2012-12-17,33,28,24,28,22,19,93,75,60,29.89,29.82,29.73,10,9,5,20,11,25,0.00,5,Snow,257
2012-12-18,37,34,30,30,27,21,100,84,52,29.75,29.66,29.47,10,8,2,14,8,23,0.00,8,Snow,254
2012-12-19,30,12,-7,30,13,-11,100,84,40,30.32,29.75,29.42,10,4,0,26,7,34,0.01,5,Snow,305
2012-12-20,26,4,-18,10,-9,-22,92,78,43,30.56,30.46,30.36,10,9,1,5,1,,0.00,1,Fog,104
2012-12-21,28,6,-16,14,-8,-18,92,80,45,30.48,30.38,30.04,10,10,10,5,0,,0.00,0,,90
2012-12-22,21,4,-13,14,-6,-17,92,84,63,30.32,30.23,30.09,10,10,10,8,1,,0.00,1,,107
2012-12-23,33,16,-2,18,6,-6,100,85,44,30.11,30.05,29.96,10,10,10,4,1,,0.00,2,Snow,130
2012-12-24,32,24,15,28,20,14,100,93,80,29.95,29.79,29.62,10,6,1,8,2,,0.00,5,Snow,100
2012-12-25,32,18,3,25,15,1,100,83,44,30.07,29.93,29.73,10,9,2,12,3,,0.00,1,,283
2012-12-26,21,10,0,18,6,-2,100,88,63,30.01,29.81,29.60,10,9,3,9,3,,0.00,4,Snow,87
2012-12-27,30,24,17,19,18,16,100,88,59,29.85,29.67,29.61,10,8,1,15,7,21,0.00,3,Snow,81
2012-12-28,26,12,-2,16,7,-6,100,87,63,30.24,30.01,29.85,10,9,2,7,0,,0.00,1,Rain-Snow,106
2012-12-29,10,0,-11,3,-7,-15,92,86,67,30.30,30.20,30.05,10,10,10,6,2,,0.00,1,,105
2012-12-30,17,6,-5,10,-1,-9,92,85,58,30.10,30.00,29.87,10,10,10,6,1,,0.00,3,,80
2012-12-31,24,17,10,19,12,9,100,88,74,30.01,29.86,29.80,10,8,2,7,1,,0.00,3,Snow,211